Bowling Green, Kentucky, United States (42101)
Lat: 36.99N, Lon: 86.44W
Wx Zone: KYZ071
Local Info
Past Weather Observations for Saturday, October 18, 2014

NOTE: This archive is for the closest National Weather Service station to Bowling Green. Information may differ from the station used for current weather conditions.

Click here for Long-term Archive

Time Weather Temperature Dewpoint Humidity Pressure Winds Precip Visibility
23:55
Overcast
52°F / 11°C 43°F / 6°C 72% 30.18 in
(1022 mb)
NNE 3.5 mph
(NNE 6 kph)
- 10SM
23:35
Overcast
52°F / 11°C 43°F / 6°C 72% 30.18 in
(1022 mb)
NNE 3.5 mph
(NNE 6 kph)
- 10SM
23:15
Overcast
52°F / 11°C 43°F / 6°C 72% 30.15 in
(1021 mb)
N 6.9 mph
(N 11 kph)
- 10SM
22:55
Overcast
52°F / 11°C 43°F / 6°C 72% 30.15 in
(1021 mb)
N 6.9 mph
(N 11 kph)
- 10SM
22:35
Overcast
52°F / 11°C 43°F / 6°C 72% 30.15 in
(1021 mb)
N 6.9 mph
(N 11 kph)
- 10SM
22:15
Overcast
52°F / 11°C 43°F / 6°C 72% 30.15 in
(1021 mb)
NNW 4.6 mph
(NNW 7 kph)
- 10SM
21:55
Overcast
52°F / 11°C 43°F / 6°C 72% 30.15 in
(1021 mb)
NNW 5.8 mph
(NNW 9 kph)
- 10SM
21:35
Overcast
52°F / 11°C 43°F / 6°C 72% 30.15 in
(1021 mb)
N 3.5 mph
(N 6 kph)
- 10SM
21:15
Overcast
52°F / 11°C 43°F / 6°C 72% 30.15 in
(1021 mb)
N 3.5 mph
(N 6 kph)
- 10SM
20:55
Overcast
52°F / 11°C 43°F / 6°C 72% 30.15 in
(1021 mb)
NNW 4.6 mph
(NNW 7 kph)
- 10SM
20:35
Overcast
54°F / 12°C 43°F / 6°C 67% 30.15 in
(1021 mb)
NNW 3.5 mph
(NNW 6 kph)
- 10SM
20:15
Overcast
54°F / 12°C 43°F / 6°C 67% 30.15 in
(1021 mb)
NNW 3.5 mph
(NNW 6 kph)
- 10SM
19:55
Overcast
54°F / 12°C 43°F / 6°C 67% 30.15 in
(1021 mb)
NNW 3.5 mph
(NNW 6 kph)
- 10SM
19:35
Overcast
54°F / 12°C 43°F / 6°C 67% 30.12 in
(1020 mb)
Calm - 10SM
19:15
Overcast
54°F / 12°C 43°F / 6°C 67% 30.12 in
(1020 mb)
Calm - 10SM
18:55
Overcast
54°F / 12°C 43°F / 6°C 67% 30.12 in
(1020 mb)
N 3.5 mph
(N 6 kph)
- 10SM
18:35
Overcast
54°F / 12°C 43°F / 6°C 67% 30.12 in
(1020 mb)
N 4.6 mph
(N 7 kph)
- 10SM
18:15
Overcast
54°F / 12°C 43°F / 6°C 67% 30.12 in
(1020 mb)
Calm - 10SM
17:55
Overcast
54°F / 12°C 43°F / 6°C 67% 30.12 in
(1020 mb)
Calm - 10SM
17:35
Overcast
55°F / 13°C 43°F / 6°C 63% 30.12 in
(1020 mb)
NNW 3.5 mph
(NNW 6 kph)
- 10SM
17:15
Overcast
55°F / 13°C 41°F / 5°C 59% 30.09 in
(1019 mb)
NNW 3.5 mph
(NNW 6 kph)
- 10SM
16:55
Overcast
55°F / 13°C 41°F / 5°C 59% 30.09 in
(1019 mb)
NNW 5.8 mph
(NNW 9 kph)
- 10SM
16:35
Overcast
55°F / 13°C 41°F / 5°C 59% 30.09 in
(1019 mb)
NNW 8.1 mph
(NNW 13 kph)
- 10SM
16:15
Overcast
55°F / 13°C 41°F / 5°C 59% 30.09 in
(1019 mb)
NNW 8.1 mph
(NNW 13 kph)
- 10SM
15:55
Overcast
57°F / 14°C 43°F / 6°C 59% 30.09 in
(1019 mb)
NNW 5.8 mph
(NNW 9 kph)
- 10SM
15:35
Overcast
57°F / 14°C 43°F / 6°C 59% 30.09 in
(1019 mb)
NNW 9.2 mph
(NNW 15 kph)
- 10SM
15:15
Overcast
57°F / 14°C 43°F / 6°C 59% 30.06 in
(1018 mb)
NW 6.9 mph
(NW 11 kph)
- 10SM
14:55
Overcast
59°F / 15°C 45°F / 7°C 59% 30.06 in
(1018 mb)
NW 6.9 mph
(NW 11 kph)
- 10SM
14:35
Overcast
59°F / 15°C 45°F / 7°C 59% 30.06 in
(1018 mb)
WNW 8.1 mph
(WNW 13 kph)
- 10SM
14:15
Overcast
57°F / 14°C 45°F / 7°C 63% 30.06 in
(1018 mb)
NW 5.8 mph
(NW 9 kph)
- 10SM
13:55
Overcast
57°F / 14°C 45°F / 7°C 63% 30.04 in
(1017 mb)
NW 5.8 mph
(NW 9 kph)
- 10SM
13:35
Overcast
59°F / 15°C 45°F / 7°C 59% 30.04 in
(1017 mb)
NW 6.9 mph
(NW 11 kph)
- 10SM
13:15
Overcast
57°F / 14°C 45°F / 7°C 63% 30.04 in
(1017 mb)
NW 6.9 mph
(NW 11 kph)
- 10SM
12:55
Overcast
57°F / 14°C 45°F / 7°C 63% 30.04 in
(1017 mb)
NW 6.9 mph
(NW 11 kph)
- 10SM
12:35
Overcast
57°F / 14°C 45°F / 7°C 63% 30.04 in
(1017 mb)
NW 10.4 mph
(NW 17 kph)
- 10SM
12:15
Overcast
59°F / 15°C 43°F / 6°C 55% 30.04 in
(1017 mb)
NW 4.6 mph
(NW 7 kph)
- 10SM
11:55
Overcast
59°F / 15°C 45°F / 7°C 59% 30.04 in
(1017 mb)
NW 5.8 mph
(NW 9 kph)
- 10SM
11:15
Overcast
59°F / 15°C 45°F / 7°C 59% 30.04 in
(1017 mb)
WNW 8.1 mph
(WNW 13 kph)
- 10SM
10:55
Overcast
59°F / 15°C 46°F / 8°C 63% 30.04 in
(1017 mb)
NW 5.8 mph
(NW 9 kph)
- 10SM
10:35
Overcast
59°F / 15°C 46°F / 8°C 63% 30.04 in
(1017 mb)
NW 5.8 mph
(NW 9 kph)
- 10SM
10:15
Overcast
61°F / 16°C 45°F / 7°C 55% 30.04 in
(1017 mb)
NW 5.8 mph
(NW 9 kph)
- 10SM
09:55
Mostly Cloudy
61°F / 16°C 46°F / 8°C 59% 30.04 in
(1017 mb)
NW 4.6 mph
(NW 7 kph)
- 10SM
09:35
Clear
59°F / 15°C 46°F / 8°C 63% 30.04 in
(1017 mb)
WNW 4.6 mph
(WNW 7 kph)
- 10SM
09:15
Clear
59°F / 15°C 46°F / 8°C 63% 30.01 in
(1016 mb)
NW 5.8 mph
(NW 9 kph)
- 10SM
08:55
Clear
59°F / 15°C 46°F / 8°C 63% 30.01 in
(1016 mb)
NW 8.1 mph
(NW 13 kph)
- 10SM
08:35
Clear
57°F / 14°C 46°F / 8°C 67% 30.01 in
(1016 mb)
NW 4.6 mph
(NW 7 kph)
- 10SM
08:15
Clear
57°F / 14°C 48°F / 9°C 72% 30.01 in
(1016 mb)
NW 8.1 mph
(NW 13 kph)
- 10SM
07:55
Clear
54°F / 12°C 48°F / 9°C 82% 30.01 in
(1016 mb)
NW 4.6 mph
(NW 7 kph)
- 10SM
07:35
Clear
54°F / 12°C 46°F / 8°C 77% 30.01 in
(1016 mb)
NW 4.6 mph
(NW 7 kph)
- 10SM
07:15
Clear
52°F / 11°C 46°F / 8°C 82% 30.01 in
(1016 mb)
WNW 3.5 mph
(WNW 6 kph)
- 10SM
06:55
Clear
50°F / 10°C 46°F / 8°C 88% 29.98 in
(1015 mb)
NW 3.5 mph
(NW 6 kph)
- 10SM
06:35
Clear
48°F / 9°C 48°F / 9°C 100% 29.98 in
(1015 mb)
Calm - 10SM
06:15
Clear
48°F / 9°C 48°F / 9°C 100% 29.98 in
(1015 mb)
Calm - 10SM
05:55
Clear
46°F / 8°C 46°F / 8°C 100% 29.98 in
(1015 mb)
Calm - 10SM
05:35
Clear
45°F / 7°C 45°F / 7°C 100% 29.98 in
(1015 mb)
Calm - 7SM
05:15
Clear
46°F / 8°C 46°F / 8°C 100% 29.98 in
(1015 mb)
Calm - 7SM
04:55
Clear
46°F / 8°C 46°F / 8°C 100% 29.98 in
(1015 mb)
Calm - 10SM
04:35
Clear
46°F / 8°C 46°F / 8°C 100% 29.95 in
(1014 mb)
Calm - 10SM
04:15
Clear
46°F / 8°C 46°F / 8°C 100% 29.95 in
(1014 mb)
Calm - 10SM
03:55
Clear
46°F / 8°C 46°F / 8°C 100% 29.95 in
(1014 mb)
Calm - 10SM
03:35
Clear
48°F / 9°C 48°F / 9°C 100% 29.95 in
(1014 mb)
Calm - 10SM
03:15
Clear
48°F / 9°C 48°F / 9°C 100% 29.95 in
(1014 mb)
Calm - 10SM
02:55
Clear
48°F / 9°C 48°F / 9°C 100% 29.95 in
(1014 mb)
Calm - 10SM
02:35
Clear
48°F / 9°C 46°F / 8°C 94% 29.95 in
(1014 mb)
Calm - 10SM
02:15
Clear
48°F / 9°C 48°F / 9°C 100% 29.95 in
(1014 mb)
Calm - 10SM
01:55
Clear
48°F / 9°C 48°F / 9°C 100% 29.92 in
(1013 mb)
Calm - 10SM
01:35
Clear
48°F / 9°C 48°F / 9°C 100% 29.92 in
(1013 mb)
Calm - 10SM
01:15
Clear
50°F / 10°C 45°F / 7°C 82% 29.92 in
(1013 mb)
Calm - 10SM
00:55
Clear
54°F / 12°C 46°F / 8°C 77% 29.92 in
(1013 mb)
Calm - 10SM
00:35
Clear
50°F / 10°C 46°F / 8°C 88% 29.95 in
(1014 mb)
Calm - 10SM
00:15
Clear
52°F / 11°C 46°F / 8°C 82% 29.95 in
(1014 mb)
Calm - 10SM
Time Weather Temperature Dewpoint Humidity Pressure Winds Precip Visibility


Weather for websites

WeatherForYou.com, LLC is not responsible for any damages or problems caused by this service. Current weather conditions are obtained from the closest station including government and personal stations which may have varying degrees of accuracy. Weather forecasts are derived from the NOAA NDFD. Like all things, this site belongs to Jesus Christ... He just trusts me to maintain it. If you have any questions or comments email webmaster@weatherforyou.com

Copyright © 2014, WeatherForYou.com LLC. All rights reserved.